This demonstration page uses our WeatherBlox Daily Observations layout. Learn more.

Left ArrowRight Arrow

41.12389, -100.76542

Hourly Observations for October 25, 2021

Temp ( °F °C ) Dew Point ( °F °C ) Humidity (%) Winds ( mph kmh ) Pressure ( in mb ) Visibility ( mi km ) Precip ( " mm )
12:53 am 00:53 Clear 33 0.6 31 -0.6 92 92 N N/A 30.02 1017 10 16 N/A
1:03 am 01:03 Partly Cloudy 37 2.8 34 1.1 89 89 NNE 6 9 30.09 1019 10 16 N/A
1:11 am 01:11 Mostly Cloudy 37 2.8 35 1.7 93 93 N N/A 30.09 1019 10 16 N/A
1:40 am 01:40 Cloudy with Mist and Fog 40 4.4 38 3.3 93 93 SSE 3 6 30.09 1019 3 4 N/A
1:53 am 01:53 Cloudy with Mist and Fog 41 5 39 3.9 93 93 S 3 6 30.05 1018 2 3 N/A
2:07 am 02:07 Cloudy with Mist and Fog 40 4.4 39 3.9 97 97 S 3 6 30.11 1020 1 2 N/A
2:22 am 02:22 Mostly Cloudy with Mist and Fog 41 5 39 3.9 93 93 E 5 7 30.09 1019 1 1 N/A
2:53 am 02:53 Mostly Cloudy with Mist and Fog 41 5 40 4.4 96 96 E 6 9 30.02 1017 1 1 N/A
3:00 am 03:00 Mostly Cloudy with Mist and Fog 41 5 40 4.4 96 96 E 5 7 30.08 1019 1 2 N/A
3:37 am 03:37 Cloudy with Mist and Fog 42 5.6 40 4.4 92 92 E 5 7 30.07 1018 2 3 N/A
3:53 am 03:53 Cloudy with Mist and Fog 42 5.6 40 4.4 92 92 ESE 5 7 30.03 1017 2 2 N/A
4:10 am 04:10 Mostly Cloudy with Mist and Fog 42 5.6 40 4.4 92 92 E 9 15 30.06 1018 1 2 N/A
4:50 am 04:50 Mostly Cloudy with Mist and Fog 43 6 39 4 87 87 E 6 9 30.07 1018 1 1 N/A
4:53 am 04:53 Mostly Cloudy with Mist and Fog 42 5.6 40 4.4 92 92 E 5 7 30.02 1017 1 2 N/A
5:01 am 05:01 Mostly Cloudy with Mist and Fog 42 5.6 40 4.4 92 92 E 6 9 30.07 1018 1 1 N/A
5:53 am 05:53 Mostly Cloudy with Fog 41 5 40 4.4 96 96 E 8 13 30.01 1016 1 1 N/A
6:53 am 06:53 Mostly Cloudy with Fog 42 5.6 40 4.4 92 92 E 7 11 30.05 1018 1 1 N/A
7:53 am 07:53 Mostly Cloudy with Mist and Fog 42 5.6 40 4.4 92 92 E 6 9 30.06 1018 1 1 N/A
8:06 am 08:06 Mostly Cloudy with Mist and Fog 42 5.6 40 4.4 92 92 ESE 6 9 30.08 1019 1 2 N/A
8:15 am 08:15 Mostly Cloudy with Fog 42 5.6 40 4.4 92 92 ESE 7 11 30.08 1019 1 1 N/A
8:28 am 08:28 Cloudy with Mist and Fog 42 5.6 40 4.4 92 92 ESE 9 15 30.08 1019 2 2 N/A
8:36 am 08:36 Mostly Cloudy with Mist and Fog 42 5.6 40 4.4 92 92 ESE 9 15 30.08 1019 1 1 N/A
8:49 am 08:49 Cloudy with Mist and Fog 43 6 39 4 87 87 ESE 7 11 30.09 1019 2 2 N/A
8:53 am 08:53 Cloudy with Mist and Fog 42 5.6 40 4.4 92 92 ESE 7 11 30.06 1018 2 3 N/A
9:02 am 09:02 Cloudy with Mist and Fog 42 5.6 40 4.4 92 92 SE 7 11 30.09 1019 4 6 N/A
9:53 am 09:53 Cloudy with Mist and Fog 42 5.6 40 4.4 92 92 SE 7 11 30.07 1018 6 10 N/A
10:53 am 10:53 Cloudy 44 6.7 41 5 89 89 SE 7 11 30.07 1018 10 16 N/A
11:53 am 11:53 Cloudy 45 7.2 41 5 86 86 SSE 8 13 30.06 1018 10 16 N/A
12:23 pm 12:23 Cloudy 47 8.3 42 5.6 83 83 SE 8 13 30.03 1017 10 16 N/A
12:53 pm 12:53 Cloudy 48 8.9 42 5.6 80 80 SE 10 17 30.04 1017 10 16 N/A
1:53 pm 13:53 Mostly Cloudy 48 8.9 41 5 77 77 S 10 17 29.99 1016 10 16 N/A
2:42 pm 14:42 Partly Cloudy 49 9.4 41 5 74 74 SSE 10 17 29.95 1014 10 16 N/A
2:53 pm 14:53 Mostly Sunny 50 10 41 5 71 71 S 13 20 29.95 1014 10 16 N/A
3:53 pm 15:53 Sunny 50 10 41 5 71 71 SE 13 20 29.92 1013 10 16 N/A
4:53 pm 16:53 Sunny 52 11.1 41 5 66 66 SSE 12 19 29.90 1013 10 16 N/A
5:53 pm 17:53 Sunny 51 10.6 40 4.4 66 66 SSE 10 17 29.90 1013 10 16 N/A
6:53 pm 18:53 Clear 48 8.9 40 4.4 74 74 SE 12 19 29.89 1012 10 16 N/A
7:53 pm 19:53 Clear 44 6.7 39 3.9 83 83 ESE 8 13 29.91 1013 10 16 N/A
8:41 pm 20:41 Mostly Cloudy 45 7.2 40 4.4 83 83 ESE 12 19 29.91 1013 10 16 N/A
8:53 pm 20:53 Cloudy 45 7.2 40 4.4 83 83 SE 14 22 29.91 1013 10 16 N/A
9:07 pm 21:07 Cloudy 45 7.2 40 4.4 83 83 SE 10 17 29.90 1013 10 16 N/A
9:53 pm 21:53 Cloudy 46 7.8 41 5 83 83 SE 13 20 29.89 1012 10 16 N/A
10:53 pm 22:53 Cloudy 46 7.8 41 5 83 83 SE 14 22 29.88 1012 10 16 N/A
11:53 pm 23:53 Cloudy 47 8.3 42 5.6 83 83 SE 16 26 29.84 1011 10 16 N/A

Powered by AerisWeather